This demonstration page uses our WeatherBlox Daily Observations layout. Learn more.

Hourly Observations for November 6, 2018

Temp ( °F °C ) Dew Point ( °F °C ) Humidity (%) Winds ( mph kmh ) Pressure ( in mb ) Visibility ( mi km ) Precip ( " mm )
12:15 am 00:15 Clear 33 0.6 29 -1.7 85 85 WNW 5 7 29.91 1013 10 16.09344 0 0
12:35 am 00:35 Clear 32 0.1 28 -2.1 85 85 W 6 9 29.94 1014 10 16.09344 0 0
12:55 am 00:55 Clear 35 1.5 29 -1.5 81 81 W 7 11 29.91 1013 10 16.09344 0 0
1:15 am 01:15 Clear 33 0.3 28 -2 85 85 W 7 11 29.97 1015 10 16.09344 0 0
1:35 am 01:35 Clear 34 1 29 -1.5 84 84 WNW 7 11 29.97 1015 10 16.09344 0 0
1:55 am 01:55 Clear 33 0.6 29 -1.6 85 85 WNW 6 9 29.97 1015 10 16.09344 0 0
2:15 am 02:15 Clear 33 0.3 29 -1.7 87 87 WNW 6 9 29.97 1015 10 16.09344 0 0
2:35 am 02:35 Clear 32 0 29 -1.9 87 87 WNW 5 7 29.97 1015 10 16.09344 0 0
2:55 am 02:55 Clear 31 -0.4 28 -2 89 89 WNW 3 6 29.97 1015 10 16.09344 0 0
3:15 am 03:15 Clear 31 -0.3 29 -1.9 89 89 W 5 7 29.97 1015 10 16.09344 0 0
3:35 am 03:35 Clear 31 -0.5 29 -1.8 91 91 WNW 3 6 30 1016 10 16.09344 0 0
3:55 am 03:55 Clear 30 -0.9 28 -2.1 92 92 WNW 6 9 30 1016 10 16.09344 0 0
4:15 am 04:15 Clear 31 -0.5 28 -2 90 90 WNW 6 9 29.97 1015 10 16.09344 0 0
4:35 am 04:35 Clear 30 -1.2 28 -2.3 92 92 WNW 7 11 30 1016 10 16.09344 0 0
4:55 am 04:55 Clear 31 -0.4 29 -1.7 91 91 WNW 7 11 30 1016 10 16.09344 0 0
5:15 am 05:15 Clear 32 -0.1 29 -1.4 91 91 WNW 6 9 30 1016 10 16.09344 0 0
5:35 am 05:35 Clear 32 -0.1 30 -1.3 92 92 W 7 11 30.03 1017 10 16.09344 0 0
5:55 am 05:55 Clear 33 0.6 31 -0.5 92 92 WSW 8 13 30.03 1017 10 16.09344 0 0
6:15 am 06:15 Clear 33 0.8 31 -0.5 91 91 W 6 9 30.03 1017 10 16.09344 0 0
6:35 am 06:35 Partly Cloudy 32 0.2 30 -1 92 92 W 6 9 30.06 1018 10 16.09344 0 0
6:55 am 06:55 Partly Cloudy 33 0.5 31 -0.8 91 91 W 5 7 30.06 1018 10 16.09344 0 0
7:15 am 07:15 Cloudy 32 0.2 31 -0.7 94 94 W 6 9 30.06 1018 10 16.09344 0 0
7:35 am 07:35 Mostly Cloudy 34 1 31 -0.5 90 90 WNW 3 6 30.06 1018 10 16.09344 0 0
7:55 am 07:55 Sunny 33 0.8 31 -0.6 90 90 WNW 3 6 30.06 1018 10 16.09344 0 0
8:15 am 08:15 Partly Cloudy 33 0.6 31 -0.5 92 92 WNW 5 7 30.09 1019 10 16.09344 0 0
8:35 am 08:35 Mostly Cloudy 33 0.7 32 -0.1 94 94 WNW 5 7 30.09 1019 10 16.09344 0 0
8:55 am 08:55 Mostly Cloudy 35 1.4 32 0.1 91 91 NW 5 7 30.09 1019 10 16.09344 0 0
9:15 am 09:15 Mostly Cloudy 37 3 34 1.1 87 87 NW 3 6 30.09 1019 10 16.09344 0 0
9:35 am 09:35 Cloudy 39 4 33 0.8 80 80 N 10 17 30.09 1019 10 16.09344 0 0
9:55 am 09:55 Cloudy 39 4 33 0.4 78 78 N 10 17 30.09 1019 10 16.09344 0 0
10:15 am 10:15 Cloudy 39 4 33 0.6 79 79 N 8 13 30.09 1019 10 16.09344 0 0
10:35 am 10:35 Cloudy 39 3.9 32 0.2 77 77 NNW 5 7 30.09 1019 10 16.09344 0 0
10:55 am 10:55 Cloudy 39 4.1 33 0.7 79 79 Calm 30.09 1019 10 16.09344 0 0
11:15 am 11:15 Cloudy 40 4.6 33 0.8 77 77 Calm 30.09 1019 10 16.09344 0 0
11:35 am 11:35 Cloudy 42 5.4 34 1.3 75 75 Calm 30.09 1019 10 16.09344 0 0
11:55 am 11:55 Cloudy 42 5.8 35 1.5 74 74 NW 5 7 30.09 1019 10 16.09344 0 0
12:15 pm 12:15 Mostly Cloudy 44 6.4 35 1.7 72 72 WNW 6 9 30.06 1018 10 16.09344 0 0
12:35 pm 12:35 Mostly Cloudy 44 6.6 35 1.8 72 72 Calm 30.03 1017 10 16.09344 0 0
12:55 pm 12:55 Cloudy 47 8.1 36 2.1 66 66 W 9 15 30.03 1017 10 16.09344 0 0
1:15 pm 13:15 Mostly Cloudy 46 7.8 35 1.4 64 64 N 3 6 30.03 1017 10 16.09344 0 0
1:35 pm 13:35 Partly Cloudy 47 8.5 35 1.4 61 61 NNW 5 7 30.03 1017 10 16.09344 0 0
1:55 pm 13:55 Sunny 48 8.9 34 1.3 59 59 SSW 6 9 29.97 1015 10 16.09344 0 0
2:15 pm 14:15 Sunny 49 9.3 34 1 56 56 N 6 9 29.97 1015 10 16.09344 0 0
2:35 pm 14:35 Sunny 49 9.5 33 0.3 53 53 NW 8 13 29.97 1015 10 16.09344 0 0
2:55 pm 14:55 Sunny 49 9.6 32 0 52 52 W 6 9 29.97 1015 10 16.09344 0 0
3:15 pm 15:15 Sunny 50 10.1 32 0 50 50 NW 8 13 30 1016 10 16.09344 0 0
3:35 pm 15:35 Sunny 49 9.7 32 0.1 52 52 NNW 5 7 30 1016 10 16.09344 0 0
3:55 pm 15:55 Sunny 49 9.7 32 -0.1 51 51 NW 6 9 30 1016 10 16.09344 0 0
4:15 pm 16:15 Sunny 49 9.7 32 0 51 51 NNW 6 9 30 1016 10 16.09344 0 0
4:35 pm 16:35 Sunny 49 9.5 32 -0.1 51 51 WNW 3 6 30 1016 10 16.09344 0 0
4:55 pm 16:55 Sunny 48 9.1 32 -0.1 53 53 Calm 30.06 1018 10 16.09344 0 0
5:15 pm 17:15 Sunny 47 8.5 31 -0.5 53 53 Calm 30.06 1018 10 16.09344 0 0
5:35 pm 17:35 Clear 44 6.7 31 -0.6 60 60 Calm 30.06 1018 10 16.09344 0 0
5:55 pm 17:55 Clear 43 6.2 31 -0.8 61 61 Calm 30.06 1018 10 16.09344 0 0
6:15 pm 18:15 Clear 41 4.9 30 -1 66 66 Calm 30.09 1019 10 16.09344 0 0
6:35 pm 18:35 Clear 38 3.4 30 -1.3 72 72 Calm 30.12 1020 10 16.09344 0 0
6:55 pm 18:55 Clear 38 3.4 30 -1.1 73 73 Calm 30.12 1020 10 16.09344 0 0
7:15 pm 19:15 Clear 38 3.2 30 -1.1 74 74 S 3 6 30.15 1021 10 16.09344 0 0
7:35 pm 19:35 Clear 35 1.4 28 -2.4 76 76 Calm 30.15 1021 10 16.09344 0 0
7:55 pm 19:55 Clear 33 0.5 28 -2.4 81 81 Calm 30.15 1021 10 16.09344 0 0
8:15 pm 20:15 Clear 32 0 28 -2.3 85 85 Calm 30.21 1023 10 16.09344 0 0
8:35 pm 20:35 Clear 33 0.5 29 -1.9 84 84 Calm 30.18 1022 10 16.09344 0 0
8:55 pm 20:55 Clear 30 -1.3 27 -2.9 89 89 Calm 30.21 1023 10 16.09344 0 0
9:15 pm 21:15 Clear 31 -0.3 28 -2 88 88 N 3 6 30.21 1023 10 16.09344 0 0
9:35 pm 21:35 Clear 31 -0.4 27 -2.8 84 84 Calm 30.24 1024 10 16.09344 0 0
9:55 pm 21:55 Clear 31 -0.6 27 -2.6 87 87 NNE 7 11 30.24 1024 10 16.09344 0 0
10:15 pm 22:15 Clear 30 -1.1 27 -2.8 88 88 NNE 9 15 30.24 1024 10 16.09344 0 0
10:35 pm 22:35 Clear 32 0 25 -3.7 76 76 NNE 13 20 30.24 1024 10 16.09344 0 0
10:55 pm 22:55 Clear 32 -0.2 24 -4.7 72 72 NNE 8 13 30.24 1024 10 16.09344 0 0
11:15 pm 23:15 Clear 29 -1.9 23 -5.2 78 78 NNE 8 13 30.24 1024 10 16.09344 0 0
11:35 pm 23:35 Clear 28 -2.3 22 -5.8 77 77 NNE 7 11 30.3 1026 10 16.09344 0 0
11:55 pm 23:55 Clear 26 -3.3 20 -6.5 79 79 NNE 7 11 30.3 1026 10 16.09344 0 0

Powered by AerisWeather